User: anonymous   Login
Location: Dampvalley
(47.9094°N, 6.1967°E)
Time: 01:59:19
(UTC+00:00)
Language:

Cosmos 2221 - Orbit

View from above orbital plane
View from above orbital plane
View from above satellite
View from above satellite

Ground track
Ground track

The orbit data is extracted from the following two-line orbital elements,

1 22236U 92080A   21125.33525561  .00000165  00000-0  15277-4 0  9993
2 22236  82.5069 159.4924 0015928 338.6436  21.4114 14.88045796517142
Epoch (UTC): 05 May 2021 08:02:46
Eccentricity: 0.0015928
inclination: 82.5069°
perigee height: 593 km
apogee height: 615 km
right ascension of ascending node: 159.4924°
argument of perigee: 338.6436°
revolutions per day: 14.88045796
mean anomaly at epoch: 21.4114°
orbit number at epoch: 51714

The dashed part of the orbit path shows where the satellite is in the earth's shadow,  

DLR